FW4606 Weather Reports


time (UTC)temp
F
wind
direction
speed
knots
gust
knots
rain 1hr
in
rain 24hr
in
rain mn
in
humidity
%
barometer
mb
20260508052510 38 150 0.0 0.0 0.00 0.00 0.00 73 1008.7
20260508051732 39 150 0.0 0.0 0.00 0.00 0.00 71 1008.7
20260508051227 39 150 0.0 0.0 0.00 0.00 0.00 70 1008.7
20260508050721 40 150 0.0 0.0 0.00 0.00 0.00 70 1008.7
20260508050214 40 150 0.0 0.0 0.00 0.00 0.00 68 1008.7
20260508045708 40 150 0.0 0.0 0.00 0.00 0.00 69 1008.8
20260508045201 40 150 0.0 0.0 0.00 0.00 0.00 70 1008.8
20260508044656 40 150 0.0 0.0 0.00 0.00 0.00 69 1008.8
20260508044421 40 150 0.0 0.0 0.00 0.00 0.00 70 1008.8
20260508044313 39 150 0.0 0.0 0.00 0.00 0.00 71 1008.8
20260508043147 38 150 0.0 0.0 0.00 0.00 0.00 72 1008.9
20260508042646 38 150 0.0 0.0 0.00 0.00 0.00 73 1009.0
20260508042143 38 150 0.0 0.0 0.00 0.00 0.00 74 1008.9
20260508041641 38 150 0.0 0.0 0.00 0.00 0.00 72 1008.9
20260508041142 38 150 0.0 0.0 0.00 0.00 0.00 71 1008.9
20260508040642 39 150 0.0 0.0 0.00 0.00 0.00 71 1009.0
20260508040140 39 150 0.0 0.0 0.00 0.00 0.00 70 1009.0
20260508035638 40 150 0.0 0.0 0.00 0.00 0.00 68 1009.1
20260508035136 40 150 0.0 0.0 0.00 0.00 0.00 66 1009.1
20260508034638 41 150 0.0 0.0 0.00 0.00 0.00 66 1009.1
20260508034138 41 150 0.0 0.0 0.00 0.00 0.00 65 1009.2
20260508033637 42 150 0.0 0.0 0.00 0.00 0.00 64 1009.2
20260508033136 42 150 0.0 0.0 0.00 0.00 0.00 63 1009.3
20260508032634 43 150 0.0 0.0 0.00 0.00 0.00 63 1009.3
20260508032403 43 151 0.0 0.0 0.00 0.00 0.00 61 1009.2
20260508031633 43 150 0.0 0.0 0.00 0.00 0.00 61 1009.2
20260508031404 43 150 0.0 0.0 0.00 0.00 0.00 61 1009.3
20260508030636 44 150 0.0 0.0 0.00 0.00 0.00 60 1009.3
20260508030131 44 151 0.0 0.0 0.00 0.00 0.00 58 1009.3
20260508025625 45 150 0.0 0.0 0.00 0.00 0.00 58 1009.3
20260508025119 45 151 0.0 0.0 0.00 0.00 0.00 56 1009.3
20260508024614 46 150 0.0 0.0 0.00 0.00 0.00 54 1009.2
20260508024107 46 150 0.0 0.0 0.00 0.00 0.00 53 1009.3
20260508023600 46 150 0.0 0.0 0.00 0.00 0.00 53 1009.2
20260508023325 47 150 0.0 0.0 0.00 0.00 0.00 52 1009.2
20260508022819 47 150 0.0 0.0 0.00 0.00 0.00 52 1009.2
20260508022043 47 150 0.0 0.0 0.00 0.00 0.00 50 1009.1
20260508021536 48 150 0.0 0.0 0.00 0.00 0.00 49 1009.1
20260508021302 48 150 0.0 0.0 0.00 0.00 0.00 48 1009.0
20260508020524 48 153 0.0 0.0 0.00 0.00 0.00 49 1009.0
20260508020018 48 151 0.0 0.0 0.00 0.00 0.00 49 1009.0
20260508015513 48 150 0.0 0.0 0.00 0.00 0.00 49 1008.9
20260508015007 48 150 0.0 0.0 0.00 0.00 0.00 48 1008.9
20260508014501 49 150 0.0 0.0 0.00 0.00 0.00 48 1008.8
20260508014226 49 150 0.0 0.0 0.00 0.00 0.00 48 1008.8
20260508013449 50 151 0.0 0.0 0.00 0.00 0.00 46 1008.8
20260508012943 51 151 0.0 0.0 0.00 0.00 0.00 44 1008.8
20260508012437 51 151 0.0 0.0 0.00 0.00 0.00 44 1008.8
20260508011930 52 151 0.0 0.0 0.00 0.00 0.00 43 1008.7
20260508011425 53 153 0.0 0.0 0.00 0.00 0.00 46 1008.7
20260508010918 53 153 0.0 0.9 0.00 0.00 0.00 43 1008.6
20260508010413 54 153 0.0 0.9 0.00 0.00 0.00 43 1008.6
20260508005907 54 186 0.0 1.7 0.00 0.00 0.00 40 1008.6
20260508005401 55 176 0.9 2.6 0.00 0.00 0.00 38 1008.7
20260508004854 55 183 0.9 4.3 0.00 0.00 0.00 38 1008.6
20260508004619 55 211 1.7 4.3 0.00 0.00 0.00 38 1008.6
20260508003843 56 194 1.7 5.2 0.00 0.00 0.00 37 1008.6
20260508003336 56 197 2.6 5.2 0.00 0.00 0.00 35 1008.6
20260508003101 57 132 1.7 5.2 0.00 0.00 0.00 35 1008.7
20260508002324 57 203 0.9 4.3 0.00 0.00 0.00 36 1008.7
20260508001818 58 146 0.9 3.5 0.00 0.00 0.00 35 1008.7
20260508001313 58 203 1.7 5.2 0.00 0.00 0.00 36 1008.7
20260508000806 58 174 1.7 5.2 0.00 0.00 0.00 33 1008.7
20260508000301 58 158 1.7 4.3 0.00 0.00 0.00 33 1008.7
20260508000025 58 172 0.9 4.3 0.00 0.00 0.00 34 1008.8
20260507235520 58 168 0.9 3.5 0.00 0.00 0.00 34 1008.8
20260507234743 59 101 0.9 4.3 0.00 0.00 0.00 32 1008.8
20260507234242 58 173 3.5 6.1 0.00 0.00 0.00 32 1008.9
20260507234237 59 146 1.7 4.3 0.00 0.00 0.00 33 1008.8
20260507233232 58 123 2.6 6.1 0.00 0.00 0.00 31 1008.9
20260507232733 59 149 3.5 7.0 0.00 0.00 0.00 33 1008.9
20260507232232 59 194 2.6 7.0 0.00 0.00 0.00 33 1009.0
20260507231730 59 191 0.9 6.1 0.00 0.00 0.00 33 1009.0
20260507231232 58 163 1.7 6.1 0.00 0.00 0.00 32 1009.0
20260507230730 59 207 2.6 6.1 0.00 0.00 0.00 31 1009.1
20260507230230 59 145 1.7 6.1 0.00 0.00 0.00 33 1009.2
20260507225729 60 133 0.9 4.3 0.00 0.00 0.00 32 1009.1
20260507225228 61 105 0.0 3.5 0.00 0.00 0.00 29 1009.2
20260507224955 60 322 0.0 2.6 0.00 0.00 0.00 31 1009.3
20260507224223 59 43 0.0 2.6 0.00 0.00 0.00 31 1009.5
20260507223720 59 106 1.7 6.1 0.00 0.00 0.00 33 1009.2
20260507223222 60 174 3.5 7.0 0.00 0.00 0.00 30 1009.2
20260507222720 61 173 2.6 7.0 0.00 0.00 0.00 31 1009.2
20260507222221 62 167 1.7 6.1 0.00 0.00 0.00 31 1009.3
20260507221721 62 112 0.9 4.3 0.00 0.00 0.00 29 1009.3
20260507221222 61 165 0.9 4.3 0.00 0.00 0.00 29 1009.5
20260507220715 61 252 0.9 4.3 0.00 0.00 0.00 28 1009.5
20260507220209 60 356 0.9 4.3 0.00 0.00 0.00 29 1009.6
20260507215704 61 170 0.9 3.5 0.00 0.00 0.00 30 1009.6
20260507215204 60 47 1.7 5.2 0.00 0.00 0.00 32 1009.6
20260507214701 60 188 1.7 9.6 0.00 0.00 0.00 29 1009.7
20260507214429 61 226 2.6 9.6 0.00 0.00 0.00 31 1009.7
20260507213704 61 225 1.7 7.0 0.00 0.00 0.00 29 1009.7
20260507213658 61 204 2.6 8.7 0.00 0.00 0.00 29 1009.8
20260507212704 62 188 1.7 7.0 0.00 0.00 0.00 29 1009.7
20260507212659 62 174 2.6 7.0 0.00 0.00 0.00 29 1009.8
20260507211700 61 131 0.9 4.3 0.00 0.00 0.00 31 1009.8
20260507211159 61 148 1.7 5.2 0.00 0.00 0.00 30 1009.7
20260507210659 60 32 3.5 7.8 0.00 0.00 0.00 31 1009.7
20260507210159 61 162 3.5 7.8 0.00 0.00 0.00 28 1009.9
20260507205700 61 198 2.6 7.0 0.00 0.00 0.00 31 1009.9
20260507205200 61 142 2.6 7.0 0.00 0.00 0.00 30 1009.8
20260507204658 61 222 4.3 8.7 0.00 0.00 0.00 31 1010.0
20260507204432 61 186 3.5 8.7 0.00 0.00 0.00 30 1010.1
20260507204326 60 186 2.6 7.0 0.00 0.00 0.00 32 1010.2
20260507203153 60 207 3.5 10.4 0.00 0.00 0.00 30 1010.1
20260507202648 59 212 1.7 10.4 0.00 0.00 0.00 30 1010.1
20260507202141 59 135 1.7 7.0 0.00 0.00 0.00 27 1010.2
20260507201642 60 207 1.7 7.0 0.00 0.00 0.00 26 1010.3
20260507201138 60 218 1.7 6.1 0.00 0.00 0.00 28 1010.5
20260507200639 61 326 2.6 8.7 0.00 0.00 0.00 30 1010.5
20260507200137 60 153 1.7 8.7 0.00 0.00 0.00 31 1010.4
20260507195637 60 62 0.9 3.5 0.00 0.00 0.00 28 1010.6
20260507195138 60 200 0.9 5.2 0.00 0.00 0.00 29 1010.6
20260507194635 60 274 1.7 5.2 0.00 0.00 0.00 30 1010.7
20260507194135 59 235 2.6 7.0 0.00 0.00 0.00 30 1010.7
20260507193636 60 175 2.6 7.8 0.00 0.00 0.00 36 1010.8
20260507193134 60 335 1.7 7.8 0.00 0.00 0.00 32 1010.7
20260507192634 59 187 0.9 6.1 0.00 0.00 0.00 33 1010.7
20260507192134 59 309 0.9 5.2 0.00 0.00 0.00 31 1010.8
20260507191634 58 207 1.7 6.1 0.00 0.00 0.00 32 1010.8
20260507191134 57 226 2.6 7.8 0.00 0.00 0.00 34 1010.9
20260507190636 57 146 1.7 7.8 0.00 0.00 0.00 31 1010.8
20260507190134 57 1 0.9 7.0 0.00 0.00 0.00 32 1010.8
20260507185633 57 233 0.9 3.5 0.00 0.00 0.00 28 1010.9
20260507185134 58 184 2.6 7.0 0.00 0.00 0.00 32 1011.0
20260507184905 58 218 3.5 7.8 0.00 0.00 0.00 33 1010.9
20260507184137 59 218 1.7 6.1 0.00 0.00 0.00 35 1011.0
20260507184133 59 228 3.5 7.8 0.00 0.00 0.00 33 1011.0
20260507183134 58 233 0.9 5.2 0.00 0.00 0.00 34 1011.0
20260507182634 58 236 1.7 7.8 0.00 0.00 0.00 31 1011.2
20260507182132 57 221 1.7 7.8 0.00 0.00 0.00 35 1011.2
20260507181634 57 236 0.9 4.3 0.00 0.00 0.00 32 1011.2
20260507181133 57 239 1.7 5.2 0.00 0.00 0.00 30 1011.2
20260507180634 57 228 0.9 5.2 0.00 0.00 0.00 33 1011.3
20260507180133 56 201 0.0 5.2 0.00 0.00 0.00 38 1011.3
20260507175904 55 164 0.0 2.6 0.00 0.00 0.00 31 1011.4
20260507175132 55 141 0.0 2.6 0.00 0.00 0.00 34 1011.6
20260507174632 56 22 0.9 4.3 0.00 0.00 0.00 32 1011.6
20260507174403 56 19 2.6 7.8 0.00 0.00 0.00 32 1011.6
20260507173632 56 242 1.7 8.7 0.00 0.00 0.00 33 1011.6
20260507173133 56 189 0.9 8.7 0.00 0.00 0.00 35 1011.7
20260507172632 55 329 0.0 2.6 0.00 0.00 0.00 35 1011.8
20260507172134 54 197 0.0 1.7 0.00 0.00 0.00 35 1011.8
20260507171632 54 229 0.0 4.3 0.00 0.00 0.00 35 1011.8
20260507171134 54 314 0.9 4.3 0.00 0.00 0.00 34 1011.8
20260507170629 54 359 0.9 6.1 0.00 0.00 0.00 33 1012.0
20260507170129 54 211 0.9 6.1 0.00 0.00 0.00 39 1012.0
20260507165628 53 248 0.9 2.6 0.00 0.00 0.00 38 1012.1
20260507165129 53 144 0.0 3.5 0.00 0.00 0.00 33 1012.1
20260507164629 54 356 0.0 3.5 0.00 0.00 0.00 33 1012.1
20260507164128 54 155 0.0 3.5 0.00 0.00 0.00 36 1012.1
20260507163628 53 242 0.9 4.3 0.00 0.00 0.00 38 1012.2
20260507163129 52 111 0.9 4.3 0.00 0.00 0.00 41 1012.3
20260507162630 52 110 1.7 4.3 0.00 0.00 0.00 37 1012.3
20260507162130 52 302 1.7 7.0 0.00 0.00 0.00 39 1012.3
20260507161629 53 158 0.9 7.0 0.00 0.00 0.00 38 1012.4
20260507161129 52 186 0.9 4.3 0.00 0.00 0.00 41 1012.5
20260507160901 52 143 0.9 4.3 0.00 0.00 0.00 41 1012.5
20260507160128 52 168 0.9 4.3 0.00 0.00 0.00 45 1012.4
20260507155629 51 155 0.9 5.2 0.00 0.00 0.00 43 1012.5
20260507155128 51 144 1.7 5.2 0.00 0.00 0.00 42 1012.6
20260507154630 52 207 0.9 5.2 0.00 0.00 0.00 44 1012.5
20260507154129 51 255 0.9 2.6 0.00 0.00 0.00 44 1012.5
20260507153628 51 139 0.9 4.3 0.00 0.00 0.00 44 1012.5
20260507153129 50 190 1.7 4.3 0.00 0.00 0.00 44 1012.5
20260507152634 50 217 0.9 3.5 0.00 0.00 0.00 47 1012.5
20260507152628 50 233 0.9 4.3 0.00 0.00 0.00 43 1012.5
20260507151630 50 134 0.0 3.5 0.00 0.00 0.00 44 1012.5
20260507151135 49 314 0.9 3.5 0.00 0.00 0.00 46 1012.6
20260507151129 50 242 0.9 3.5 0.00 0.00 0.00 46 1012.6
20260507150124 49 153 0.9 2.6 0.00 0.00 0.00 46 1012.6
20260507145624 49 180 0.9 3.5 0.00 0.00 0.00 46 1012.7
20260507145355 48 266 0.9 3.5 0.00 0.00 0.00 51 1012.7
20260507144625 48 146 0.9 4.3 0.00 0.00 0.00 48 1012.7
20260507144125 47 139 0.0 4.3 0.00 0.00 0.00 50 1012.7
20260507143618 47 226 0.0 3.5 0.00 0.00 0.00 48 1012.8
20260507143111 47 222 0.0 3.5 0.00 0.00 0.00 51 1012.8
20260507142605 46 233 0.0 2.6 0.00 0.00 0.00 55 1012.8
20260507142100 46 207 0.0 2.6 0.00 0.00 0.00 54 1012.8
20260507141600 45 155 0.0 2.6 0.00 0.00 0.00 56 1012.8
20260507141333 44 210 0.0 0.9 0.00 0.00 0.00 58 1012.8
20260507140557 44 153 0.0 0.9 0.00 0.00 0.00 59 1012.9
20260507140057 43 111 0.0 2.6 0.00 0.00 0.00 61 1012.8
20260507135558 42 226 0.9 2.6 0.00 0.00 0.00 63 1012.8
20260507135056 42 150 0.0 2.6 0.00 0.00 0.00 65 1012.9
20260507134554 41 245 0.0 1.7 0.00 0.00 0.00 69 1012.9
20260507134051 41 169 0.0 1.7 0.00 0.00 0.00 71 1012.9
20260507133550 40 132 0.0 0.9 0.00 0.00 0.00 75 1013.0
20260507133321 39 143 0.0 0.9 0.00 0.00 0.00 76 1013.0
20260507132547 38 181 0.0 0.0 0.00 0.00 0.00 81 1013.0
20260507132047 38 160 0.0 0.9 0.00 0.00 0.00 82 1013.0
20260507131816 37 191 0.0 0.9 0.00 0.00 0.00 84 1013.0
20260507131314 35 158 0.0 0.0 0.00 0.00 0.00 87 1013.0
20260507130543 34 148 0.0 0.0 0.00 0.00 0.00 88 1013.1
20260507130045 33 153 0.0 0.0 0.00 0.00 0.00 89 1013.1
20260507125543 33 153 0.0 0.0 0.00 0.00 0.00 90 1013.1
20260507125040 32 154 0.0 0.0 0.00 0.00 0.00 92 1013.2
20260507124540 31 153 0.0 0.0 0.00 0.00 0.00 92 1013.2
20260507124041 31 153 0.0 0.0 0.00 0.00 0.00 92 1013.2
20260507123540 30 154 0.0 0.0 0.00 0.00 0.00 92 1013.2
20260507123312 30 154 0.0 0.0 0.00 0.00 0.00 92 1013.1
20260507122542 30 153 0.0 0.0 0.00 0.00 0.00 92 1013.2
20260507122038 29 154 0.0 0.0 0.00 0.00 0.00 93 1013.2
20260507121538 29 154 0.0 0.0 0.00 0.00 0.00 92 1013.2
20260507121306 29 154 0.0 0.0 0.00 0.00 0.00 92 1013.2
20260507120805 28 153 0.0 0.0 0.00 0.00 0.00 92 1013.1
20260507120037 28 154 0.0 0.0 0.00 0.00 0.00 91 1013.1
20260507115536 28 154 0.0 0.0 0.00 0.00 0.00 91 1013.2
20260507115032 28 154 0.0 0.0 0.00 0.00 0.00 91 1013.2
20260507114531 29 153 0.0 0.0 0.00 0.00 0.00 91 1013.2
20260507114030 29 153 0.0 0.0 0.00 0.00 0.00 91 1013.2
20260507113531 28 153 0.0 0.0 0.00 0.00 0.00 91 1013.1
20260507113024 28 153 0.0 0.0 0.00 0.00 0.00 91 1013.1
20260507112518 28 154 0.0 0.0 0.00 0.00 0.00 90 1013.1
20260507112013 28 153 0.0 0.0 0.00 0.00 0.00 90 1013.1
20260507111507 29 154 0.0 0.0 0.00 0.00 0.00 90 1013.1
20260507111232 29 154 0.0 0.0 0.00 0.00 0.00 90 1013.2
20260507110454 29 153 0.0 0.0 0.00 0.00 0.00 89 1013.2
20260507105951 29 153 0.0 0.0 0.00 0.00 0.00 89 1013.2
20260507105946 29 153 0.0 0.0 0.00 0.00 0.00 88 1013.4
20260507104937 30 153 0.0 0.0 0.00 0.00 0.00 87 1013.2
20260507104431 30 153 0.0 0.0 0.00 0.00 0.00 88 1013.2
20260507104426 30 153 0.0 0.0 0.00 0.00 0.00 88 1013.2
20260507103419 31 153 0.0 0.0 0.00 0.00 0.00 88 1013.1
20260507103144 31 154 0.0 0.0 0.00 0.00 0.00 88 1013.1
20260507102407 31 147 0.0 0.0 0.00 0.00 0.00 88 1013.2
20260507101902 31 146 0.0 0.0 0.00 0.00 0.00 87 1013.2
20260507101355 31 146 0.0 0.0 0.00 0.00 0.00 87 1013.0
20260507101120 31 147 0.0 0.0 0.00 0.00 0.00 87 1013.1
20260507100350 31 146 0.0 0.0 0.00 0.00 0.00 88 1013.1
20260507095846 31 146 0.0 0.0 0.00 0.00 0.00 88 1013.0
20260507095346 30 146 0.0 0.0 0.00 0.00 0.00 89 1013.1
20260507094846 30 146 0.0 0.0 0.00 0.00 0.00 89 1013.1
20260507094347 30 146 0.0 0.0 0.00 0.00 0.00 88 1013.1
20260507093846 30 146 0.0 0.0 0.00 0.00 0.00 88 1013.1
20260507093348 30 146 0.0 0.0 0.00 0.00 0.00 88 1013.2
20260507092849 30 146 0.0 0.0 0.00 0.00 0.00 89 1013.2
20260507092344 30 146 0.0 0.0 0.00 0.00 0.00 89 1013.2
20260507091846 30 147 0.0 0.0 0.00 0.00 0.00 90 1013.2
20260507091615 29 146 0.0 0.0 0.00 0.00 0.00 90 1013.2
20260507090842 29 146 0.0 0.0 0.00 0.00 0.00 90 1013.2
20260507090340 29 146 0.0 0.0 0.00 0.00 0.00 90 1013.2
20260507085841 28 147 0.0 0.0 0.00 0.00 0.00 90 1013.2
20260507085338 28 146 0.0 0.0 0.00 0.00 0.00 90 1013.2
20260507084838 28 146 0.0 0.0 0.00 0.00 0.00 90 1013.2
20260507084608 28 147 0.0 0.0 0.00 0.00 0.00 90 1013.2
20260507084110 28 147 0.0 0.0 0.00 0.00 0.00 89 1013.2
20260507083333 28 146 0.0 0.0 0.00 0.00 0.00 88 1013.2
20260507083059 28 146 0.0 0.0 0.00 0.00 0.00 88 1013.2
20260507082321 28 147 0.0 0.0 0.00 0.00 0.00 88 1013.1
20260507081815 28 146 0.0 0.0 0.00 0.00 0.00 87 1013.2
20260507081539 29 147 0.0 0.0 0.00 0.00 0.00 86 1013.2
20260507081033 29 146 0.0 0.0 0.00 0.00 0.00 86 1013.2
20260507080256 29 146 0.0 0.0 0.00 0.00 0.00 84 1013.2
20260507075750 30 146 0.0 0.0 0.00 0.00 0.00 83 1013.1
20260507075244 31 146 0.0 0.0 0.00 0.00 0.00 83 1013.1
20260507075010 31 146 0.0 0.0 0.00 0.00 0.00 83 1013.1
20260507074232 31 146 0.0 0.0 0.00 0.00 0.00 84 1013.1
20260507073726 31 146 0.0 0.0 0.00 0.00 0.00 84 1013.1
20260507073223 31 146 0.0 0.0 0.00 0.00 0.00 84 1013.1
20260507072714 31 146 0.0 0.0 0.00 0.00 0.00 84 1013.2
20260507072208 31 146 0.0 0.0 0.00 0.00 0.00 84 1013.4
20260507071703 31 146 0.0 0.0 0.00 0.00 0.00 84 1013.5
20260507071157 31 146 0.0 0.0 0.00 0.00 0.00 83 1013.6
20260507070918 31 146 0.0 0.0 0.00 0.00 0.00 83 1013.7
20260507070752 31 146 0.0 0.0 0.00 0.00 0.00 83 1013.6
20260507065639 31 146 0.0 0.0 0.00 0.00 0.00 82 1013.7
20260507065134 31 146 0.0 0.0 0.00 0.00 0.00 80 1013.9
20260507064627 32 146 0.0 0.0 0.00 0.00 0.00 79 1013.8
20260507064121 32 146 0.0 0.0 0.00 0.00 0.00 79 1013.7
20260507063615 32 146 0.0 0.0 0.00 0.00 0.00 79 1013.8
20260507063108 32 146 0.0 0.0 0.00 0.00 0.00 80 1013.9
20260507062603 32 146 0.0 0.0 0.00 0.00 0.00 78 1013.9
20260507062057 33 146 0.0 0.0 0.00 0.00 0.00 77 1014.0
20260507061551 33 146 0.0 0.0 0.00 0.00 0.00 76 1014.0
20260507061045 34 146 0.0 0.0 0.00 0.00 0.00 75 1014.0
20260507060537 34 146 0.0 0.0 0.00 0.00 0.00 75 1014.0
20260507060031 35 146 0.0 0.0 0.00 0.00 0.00 74 1014.1
20260507055525 35 146 0.0 0.0 0.00 0.00 0.00 74 1014.1
20260507055019 35 146 0.0 0.0 0.00 0.00 0.00 74 1014.2
20260507054513 35 146 0.0 0.0 0.00 0.00 0.00 74 1014.2
20260507054007 36 146 0.0 0.0 0.00 0.00 0.00 73 1014.2
20260507053501 36 146 0.0 0.0 0.00 0.00 0.00 73 1014.2
20260507052955 36 146 0.0 0.0 0.00 0.00 0.00 73 1014.2